Погода в Заручейном

Россия / Республика Коми     62°05′07″N   49°21′38″E
темп.,
°C
ветер,
м/с
пор.,
м/с
влажн.,
%
обл.,
%
осадки,
мм/ч
давл.,
гПа
погр.,
м
28 февраля, вс
вс2800:00−21ссз0110093 0.0 101320
03:00−22всв0010091 0.1 101420
06:00−22ююв0110084 0.0 101320
09:00−17ююв129284 0.0 1014166
12:00−12юз128595 0.0 1014402
15:00−11юз128597 0.0 1015459
18:00−14з119691 0.1 101620
21:00−16юз129782 0.1 101720
1 марта, пн
пн100:00−17юз229872 0.0 101731
03:00−18ююз239867 0.0 101775
06:00−17ююз379895 0.0 1014158
09:00−13ююз389497 0.1 1012269
12:00−8ююз51192100 0.1 1008418
15:00−6ююз51293100 0.7 1005643
18:00−5юз51395100 1.1 1000677
21:00−4юз41196100 2.4 998592
2 марта, вт
вт200:00−3юз41096100 2.0 995490
03:00−2зюз3697100 3.9 993263
06:00−5з249599 0.2 992105
09:00−4зсз379564 0.2 992320
12:00−1з369391 0.1 992619
15:00−2з379396 0.4 993572
18:00−4зюз2593100 0.1 993146
21:00−6зюз129893 0.3 99326
3 марта, ср
ср300:00−7ссз229695 0.1 99563
03:00−6ссз4119395 0.4 997787
06:00−8сз4118999 0.2 999551
09:00−10сз499396 0.2 1001439
12:00−7зсз4789100 0.0 1002626
15:00−6зсз4887100 0.1 1002929
18:00−9з269788 0.1 1001131
21:00−11з389592 0.3 1001221
4 марта, чт
чт400:00−14зюз239736 0.0 100051
03:00−15ююз239846 0.0 99833
06:00−13ююв279793 0.0 995176
09:00−9ююв4109496 0.3 990369
12:00−7юв51194100 1.1 985659
15:00−6юв51094100 3.0 982674
18:00−6в4995100 2.0 981553
21:00−7св4994100 3.1 982447